Tucson Davis Monthan, AZ

4:24 AM MST on January 17, 2018 (GMT -0700)
Davis-Monthan Air Force Base

Weather History for KDMA - October, 2012

Change the Weather History Date:

Saturday, October 27, 2012

  Actual Average Record
Temperature  
Mean Temperature 70 °F -  
Max Temperature 84 °F 78 °F 95 °F (2001)
Min Temperature 56 °F 51 °F 35 °F (1970)
Cooling Degree Days 5    
Growing Degree Days 20 (Base 50)    
Moisture  
Dew Point 27 °F    
Average Humidity 22    
Maximum Humidity 31    
Minimum Humidity 11    
Precipitation  
Precipitation 0.00 in - - ()
Sea Level Pressure  
Sea Level Pressure 29.87 in    
Wind  
Wind Speed 9 mph (ESE)    
Max Wind Speed 22 mph    
Max Gust Speed 31 mph    
Visibility 10 miles    
Events      
Averages and records for this station are not official NWS values.
T = Trace of Precipitation, MM = Missing Value Source: NWS Daily Summary

Daily Weather History Graph

Daily Weather History Graph

Search for Another Location

Airport or City:

Trip Planner

Search our weather history database for the weather conditions in past years. The results will help you decide how hot, cold, wet, or windy it might be!

Date:

Astronomy

Oct. 27, 2012 Rise Set
Actual Time 6:36 AM MST 5:37 PM MST
Civil Twilight 6:11 AM MST 6:02 PM MST
Nautical Twilight 5:42 AM MST 6:31 PM MST
Astronomical Twilight 5:14 AM MST 6:59 PM MST
Moon 4:21 PM MST (10/27) 4:40 AM MST (10/27)
Length of Visible Light 11h 50m
Length of Day
11h 00m
Waxing Gibbous, 96% of the Moon is Illuminated
Oct 27
Waxing Gibbous
Oct 29
Full
Nov 6
Last Quarter
Nov 13
New
Nov 20
First Quarter

Hourly Weather History & Observations

Time (MST) Temp. Dew Point Humidity Pressure Visibility Wind Dir Wind Speed Gust Speed Precip Events Conditions
12:58 AM 57.2 °F 21.7 °F 25% 29.87 in 10.0 mi SSE 6.9 mph - -   Clear
1:58 AM 61.0 °F 26.1 °F 26% 29.86 in 10.0 mi SSE 8.1 mph - -   Clear
2:58 AM 59.5 °F 25.9 °F 28% 29.86 in 10.0 mi ESE 6.9 mph - -   Clear
3:58 AM 56.8 °F 25.5 °F 30% 29.86 in 10.0 mi SE 9.2 mph - -   Clear
4:58 AM 56.5 °F 25.9 °F 31% 29.87 in 10.0 mi East 8.1 mph - -   Clear
5:58 AM 58.8 °F 28.0 °F 31% 29.88 in 10.0 mi ESE 11.5 mph - -   Clear
6:58 AM 59.0 °F 28.0 °F 31% 29.89 in 10.0 mi ESE 12.7 mph - -   Clear
7:58 AM 62.8 °F 28.6 °F 27% 29.91 in 10.0 mi ESE 15.0 mph - -   Clear
8:58 AM 66.2 °F 29.8 °F 26% 29.93 in 10.0 mi ESE 21.9 mph - -   Clear
9:58 AM 70.5 °F 30.4 °F 23% 29.93 in 10.0 mi SE 18.4 mph 31.1 mph -   Clear
10:58 AM 74.3 °F 30.0 °F 20% 29.91 in 10.0 mi East 10.4 mph 17.3 mph -   Clear
11:58 AM 78.1 °F 29.5 °F 17% 29.87 in 10.0 mi SE 17.3 mph - -   Clear
12:58 PM 80.6 °F 29.3 °F 15% 29.83 in 10.0 mi SE 13.8 mph - -   Clear
1:58 PM 82.6 °F 27.9 °F 14% 29.81 in 10.0 mi ESE 10.4 mph - -   Clear
2:58 PM 84.0 °F 24.6 °F 11% 29.80 in 10.0 mi East 3.5 mph - -   Clear
3:58 PM 84.0 °F 26.8 °F 12% 29.79 in 10.0 mi North 6.9 mph - -   Clear
4:58 PM 82.9 °F 23.9 °F 11% 29.80 in 10.0 mi North 8.1 mph - -   Clear
5:58 PM 77.2 °F 26.6 °F 15% 29.83 in 10.0 mi NNW 5.8 mph - -   Clear
6:58 PM 75.2 °F 27.9 °F 17% 29.86 in 10.0 mi NW 4.6 mph - -   Clear
7:58 PM 70.3 °F 27.9 °F 21% 29.87 in 10.0 mi Variable 1.2 mph - -   Clear
8:58 PM 66.2 °F 27.7 °F 24% 29.91 in 10.0 mi South 5.8 mph - -   Clear
9:58 PM 68.0 °F 28.0 °F 22% 29.91 in 10.0 mi SE 8.1 mph - -   Clear
10:58 PM 61.7 °F 27.7 °F 28% 29.91 in 10.0 mi SE 4.6 mph - -   Clear
11:58 PM 65.3 °F 28.9 °F 26% 29.90 in 10.0 mi ESE 9.2 mph - -   Clear